When you browse on this site, cookies collect data to enhance your experience and personalize the content and advertising you see.
Visit our Privacy Policy to learn more. By continuing to use the site, you agree to this use of cookies and data.
  • In Spain
  • List of Countries
  • For 7 days
  • Water Temperature
  • Weather Map
  • Weather Widgets
  • user-avatar
    Login

    Hourly Weather Akkol'

    Today, 21 August, Wednesday

    Time Temperature Precipitation Wind Pressure Humidity
    00:00 +18°C° 0.2 mm 1 mps 729 mmHg 60%
    01:00 +18°C° 0.2 mm 1 mps 729 mmHg 65%
    02:00 +18°C° 0.2 mm 1 mps 728 mmHg 69%
    03:00 +16°C° 0.5 mm 1 mps 728 mmHg 73%
    04:00 +16°C° 0.5 mm 2 mps 728 mmHg 77%
    05:00 +16°C° 0 mm 1 mps 727 mmHg 83%
    06:00 +16°C° 0.7 mm 1 mps 727 mmHg 83%
    07:00 +15°C° 0.7 mm 1 mps 727 mmHg 83%
    08:00 +15°C° 0.7 mm 1 mps 727 mmHg 83%
    09:00 +16°C° 0.5 mm 1 mps 726 mmHg 83%
    10:00 +16°C° 0.5 mm 1 mps 726 mmHg 82%
    11:00 +16°C° 0.5 mm 1 mps 726 mmHg 81%
    12:00 +18°C° 0.2 mm 1 mps 725 mmHg 80%
    13:00 +19°C° 0.2 mm 1 mps 725 mmHg 78%
    14:00 +17°C° 0.2 mm 0 mps 725 mmHg 77%
    15:00 +18°C° 0.2 mm 2 mps 725 mmHg 79%
    16:00 +17°C° 0.2 mm 3 mps 725 mmHg 82%
    17:00 +15°C° 0.2 mm 5 mps 724 mmHg 84%
    18:00 +15°C° 0.6 mm 5 mps 724 mmHg 86%
    19:00 +14°C° 0.6 mm 5 mps 724 mmHg 88%
    20:00 +13°C° 0.6 mm 6 mps 724 mmHg 89%
    21:00 +13°C° 0.2 mm 5 mps 724 mmHg 90%
    22:00 +12°C° 0.2 mm 5 mps 724 mmHg 90%
    23:00 +12°C° 0.2 mm 4 mps 724 mmHg 91%

    Tomorrow, 22 August, Thursday

    Time Temperature Precipitation Wind Pressure Humidity
    00:00 +11°C° 0 mm 4 mps 724 mmHg 91%
    01:00 +11°C° 0 mm 4 mps 724 mmHg 92%
    02:00 +10°C° 0 mm 4 mps 724 mmHg 92%
    03:00 +10°C° 0 mm 4 mps 724 mmHg 90%
    04:00 +10°C° 0 mm 4 mps 725 mmHg 88%
    05:00 +10°C° 0 mm 4 mps 725 mmHg 86%
    06:00 +11°C° 0 mm 4 mps 725 mmHg 80%
    07:00 +12°C° 0 mm 5 mps 725 mmHg 74%
    08:00 +13°C° 0 mm 5 mps 725 mmHg 67%
    09:00 +14°C° 0 mm 5 mps 726 mmHg 63%
    10:00 +16°C° 0 mm 5 mps 726 mmHg 59%
    11:00 +18°C° 0 mm 4 mps 726 mmHg 55%
    12:00 +18°C° 0 mm 4 mps 726 mmHg 54%
    13:00 +18°C° 0 mm 3 mps 726 mmHg 52%
    14:00 +19°C° 0 mm 3 mps 726 mmHg 51%
    15:00 +19°C° 0 mm 3 mps 726 mmHg 51%
    16:00 +19°C° 0 mm 3 mps 727 mmHg 51%
    17:00 +19°C° 0 mm 3 mps 727 mmHg 52%
    18:00 +18°C° 0 mm 3 mps 727 mmHg 59%
    19:00 +17°C° 0 mm 2 mps 727 mmHg 66%
    20:00 +15°C° 0 mm 2 mps 727 mmHg 73%
    21:00 +15°C° 0 mm 2 mps 728 mmHg 77%
    22:00 +14°C° 0 mm 2 mps 728 mmHg 82%
    23:00 +13°C° 0 mm 3 mps 728 mmHg 86%

    Day after tomorrow, 23 August, Friday

    Time Temperature Precipitation Wind Pressure Humidity
    00:00 +13°C° 0 mm 2 mps 728 mmHg 88%
    01:00 +13°C° 0 mm 2 mps 728 mmHg 90%
    02:00 +13°C° 0 mm 2 mps 728 mmHg 91%
    03:00 +12°C° 0 mm 2 mps 728 mmHg 91%
    04:00 +12°C° 0 mm 2 mps 729 mmHg 91%
    05:00 +12°C° 0 mm 2 mps 729 mmHg 91%
    06:00 +13°C° 0 mm 2 mps 729 mmHg 85%
    07:00 +15°C° 0 mm 2 mps 730 mmHg 78%
    08:00 +17°C° 0 mm 2 mps 730 mmHg 71%
    09:00 +19°C° 0 mm 3 mps 730 mmHg 63%
    10:00 +20°C° 0 mm 3 mps 731 mmHg 55%
    11:00 +22°C° 0 mm 3 mps 731 mmHg 47%
    12:00 +22°C° 0 mm 3 mps 731 mmHg 46%
    13:00 +24°C° 0 mm 3 mps 730 mmHg 44%
    14:00 +24°C° 0 mm 3 mps 730 mmHg 42%
    15:00 +24°C° 0 mm 3 mps 730 mmHg 43%
    16:00 +24°C° 0 mm 3 mps 731 mmHg 44%
    17:00 +24°C° 0 mm 3 mps 731 mmHg 45%
    18:00 +23°C° 0 mm 2 mps 731 mmHg 51%
    19:00 +20°C° 0 mm 2 mps 730 mmHg 56%
    20:00 +19°C° 0 mm 2 mps 730 mmHg 62%
    21:00 +18°C° 0 mm 2 mps 730 mmHg 65%
    22:00 +17°C° 0 mm 2 mps 730 mmHg 69%
    23:00 +16°C° 0 mm 1 mps 730 mmHg 72%

    24 August, Saturday

    Time Temperature Precipitation Wind Pressure Humidity
    00:00 +16°C° 0 mm 2 mps 730 mmHg 74%
    01:00 +16°C° 0 mm 2 mps 730 mmHg 75%
    02:00 +15°C° 0 mm 2 mps 730 mmHg 77%
    03:00 +15°C° 0 mm 2 mps 730 mmHg 77%
    04:00 +14°C° 0 mm 3 mps 730 mmHg 77%
    05:00 +14°C° 0 mm 3 mps 730 mmHg 77%
    06:00 +16°C° 0 mm 3 mps 730 mmHg 70%
    07:00 +18°C° 0 mm 4 mps 730 mmHg 63%
    08:00 +20°C° 0 mm 5 mps 730 mmHg 57%
    09:00 +21°C° 0 mm 5 mps 730 mmHg 52%
    10:00 +23°C° 0 mm 5 mps 731 mmHg 47%
    11:00 +26°C° 0 mm 6 mps 731 mmHg 42%
    12:00 +26°C° 0 mm 6 mps 730 mmHg 41%
    13:00 +27°C° 0 mm 6 mps 730 mmHg 39%
    14:00 +28°C° 0 mm 6 mps 730 mmHg 38%
    15:00 +28°C° 0 mm 6 mps 730 mmHg 38%
    16:00 +28°C° 0 mm 6 mps 730 mmHg 39%
    17:00 +28°C° 0 mm 6 mps 729 mmHg 39%
    18:00 +26°C° 0 mm 5 mps 729 mmHg 47%
    19:00 +23°C° 0 mm 4 mps 729 mmHg 56%
    20:00 +21°C° 0 mm 3 mps 729 mmHg 64%
    21:00 +20°C° 0 mm 2 mps 729 mmHg 71%
    22:00 +19°C° 0 mm 2 mps 729 mmHg 78%
    23:00 +18°C° 0 mm 2 mps 729 mmHg 85%

    25 August, Sunday

    Time Temperature Precipitation Wind Pressure Humidity
    00:00 +17°C° 0.1 mm 2 mps 729 mmHg 84%
    01:00 +17°C° 0.1 mm 2 mps 729 mmHg 83%
    02:00 +16°C° 0.1 mm 2 mps 729 mmHg 82%
    03:00 +16°C° 0 mm 2 mps 729 mmHg 81%
    04:00 +15°C° 0 mm 2 mps 729 mmHg 81%
    05:00 +14°C° 0 mm 2 mps 729 mmHg 80%
    06:00 +14°C° 0 mm 3 mps 730 mmHg 74%
    07:00 +16°C° 0 mm 3 mps 730 mmHg 69%
    08:00 +18°C° 0 mm 3 mps 730 mmHg 63%
    09:00 +19°C° 0 mm 3 mps 731 mmHg 56%
    10:00 +20°C° 0 mm 3 mps 731 mmHg 48%
    11:00 +21°C° 0 mm 3 mps 731 mmHg 40%
    12:00 +22°C° 0 mm 3 mps 731 mmHg 38%
    13:00 +24°C° 0 mm 3 mps 731 mmHg 36%
    14:00 +24°C° 0 mm 3 mps 731 mmHg 34%
    15:00 +24°C° 0 mm 3 mps 731 mmHg 34%
    16:00 +24°C° 0 mm 3 mps 731 mmHg 35%
    17:00 +24°C° 0 mm 2 mps 731 mmHg 35%
    18:00 +23°C° 0 mm 2 mps 730 mmHg 41%
    19:00 +20°C° 0 mm 2 mps 730 mmHg 46%
    20:00 +18°C° 0 mm 2 mps 730 mmHg 51%
    21:00 +17°C° 0 mm 2 mps 730 mmHg 53%
    22:00 +17°C° 0 mm 2 mps 730 mmHg 55%
    23:00 +16°C° 0 mm 2 mps 730 mmHg 57%

    26 August, Monday

    Time Temperature Precipitation Wind Pressure Humidity
    00:00 +16°C° 0 mm 2 mps 730 mmHg 58%
    01:00 +14°C° 0 mm 3 mps 729 mmHg 60%
    02:00 +14°C° 0 mm 3 mps 729 mmHg 62%
    03:00 +14°C° 0 mm 3 mps 729 mmHg 63%
    04:00 +13°C° 0 mm 3 mps 729 mmHg 64%
    05:00 +13°C° 0 mm 3 mps 729 mmHg 65%
    06:00 +16°C° 0 mm 3 mps 728 mmHg 59%
    07:00 +17°C° 0 mm 3 mps 728 mmHg 54%
    08:00 +19°C° 0 mm 3 mps 728 mmHg 48%
    09:00 +21°C° 0 mm 3 mps 728 mmHg 42%
    10:00 +24°C° 0 mm 3 mps 728 mmHg 37%
    11:00 +26°C° 0 mm 3 mps 728 mmHg 31%
    12:00 +26°C° 0 mm 3 mps 727 mmHg 29%
    13:00 +27°C° 0 mm 3 mps 727 mmHg 27%
    14:00 +28°C° 0 mm 3 mps 726 mmHg 25%
    15:00 +28°C° 0 mm 3 mps 726 mmHg 25%
    16:00 +28°C° 0 mm 3 mps 725 mmHg 25%
    17:00 +28°C° 0 mm 3 mps 725 mmHg 26%
    18:00 +26°C° 0 mm 3 mps 724 mmHg 29%
    19:00 +24°C° 0 mm 3 mps 723 mmHg 31%
    20:00 +22°C° 0 mm 4 mps 723 mmHg 34%
    21:00 +21°C° 0 mm 4 mps 722 mmHg 35%
    22:00 +21°C° 0 mm 4 mps 722 mmHg 35%
    23:00 +20°C° 0 mm 4 mps 721 mmHg 36%
    Show more